NUSHSAT 1
1 63211U 25052B 26253.44490664 .00019019 00000-0 49216-3 0 9997
2 63211 97.3858 151.3114 0004496 119.4653 240.7041 15.39109962 83243
TEVEL2-4
1 63213U 25052D 26253.26200846 .00016486 00000-0 45149-3 0 9996
2 63213 97.3776 149.9094 0003797 128.2607 231.8979 15.37392194 83176
TEVEL2-5
1 63214U 25052E 26252.64237562 .00015350 00000-0 42392-3 0 9999
2 63214 97.3776 149.2086 0003608 130.0125 230.1437 15.37148149 83077
TEVEL2-6
1 63215U 25052F 26252.65659895 .00015303 00000-0 42304-3 0 9999
2 63215 97.3777 149.2078 0003525 129.8396 230.3159 15.37117262 83079
TEVEL2-1
1 63217U 25052H 26253.43411845 .00015486 00000-0 43656-3 0 9992
2 63217 97.3753 149.5043 0003413 141.0768 219.0722 15.36505913 83179
TEVEL2-3
1 63218U 25052J 26252.64363640 .00014895 00000-0 41933-3 0 9993
2 63218 97.3756 148.7466 0003087 138.5755 221.5723 15.36555936 83053
TEVEL2-2
1 63219U 25052K 26252.65227583 .00014410 00000-0 40661-3 0 9990
2 63219 97.3754 148.7242 0003303 142.4053 217.7422 15.36492914 83059
TEVEL2-9
1 63237U 25052AD 26253.26637454 .00014094 00000-0 42622-3 0 9997
2 63237 97.3811 148.5172 0005642 177.0387 183.0890 15.34306248 83062
TEVEL2-7
1 63238U 25052AE 26253.26015976 .00013298 00000-0 40695-3 0 9990
2 63238 97.3813 148.3878 0005535 178.8508 181.2749 15.33944486 83054
TEVEL2-8
1 63239U 25052AF 26252.68202349 .00013040 00000-0 39943-3 0 9997
2 63239 97.3818 147.7833 0005510 180.5846 179.5392 15.33918795 82969
SPIRONE
1 66657U 25274H 26253.53251699 .00001342 00000-0 13160-3 0 9992
2 66657 97.7476 181.6170 0013610 89.9939 270.2841 14.93828347 42968
K-HERO
1 66660U 25274L 26253.51400993 .00001021 00000-0 10042-3 0 9997
2 66660 97.7484 181.8216 0015474 93.6805 266.6185 14.94225263 42978
SNUGLITE-III DURI
1 66661U 25274M 26253.36652626 .00001343 00000-0 13032-3 0 9992
2 66661 97.7482 181.6965 0016124 95.1023 265.2038 14.94234957 42958
SAKHACUBE-CHOLBON
1 67290U 25313AU 26252.96919934 .00008079 00000-0 31418-3 0 9999
2 67290 97.3874 326.9948 0010220 62.7879 297.4400 15.26247707 38906
RS95S (QMR-KWT-2)
1 67291U 25313AV 26253.45128966 .00011329 00000-0 41299-3 0 9992
2 67291 97.3873 327.8648 0009532 59.4358 300.7821 15.28296813 39003
Ten-Koh2
1 68261U 25241B 26253.30856227 .00004189 00000-0 17981-3 0 9999
2 68261 51.6623 274.2106 0007985 65.5939 294.5872 15.24830422 27890
JACK-002
1 68417U 26067B 26253.42082078 .00005418 00000-0 25246-3 0 9996
2 68417 97.4654 211.0533 0002322 34.8678 325.2709 15.20311297 24895
DISCO 2
1 68431U 26067R 26253.45373196 .00005890 00000-0 27496-3 0 9992
2 68431 97.4686 211.0849 0004057 72.3944 287.7734 15.20203274 24891
HADES-SA (SpinnyONE)
1 68446U 26067AG 26253.38469220 .00015215 00000-0 67404-3 0 9999
2 68446 97.4477 210.6033 0008369 125.1666 235.0355 15.21693897 24871
PARUS-6U1
1 68456U 26067AS 26253.42519061 .00004587 00000-0 22693-3 0 9995
2 68456 97.4640 210.5643 0007157 118.1724 242.0233 15.18289533 24867
SAL-E
1 68458U 26067AU 26253.59615574 .00005185 00000-0 25210-3 0 9994
2 68458 97.4563 210.6346 0007306 124.5468 235.6457 15.18827712 24892
FSI-SAT 2
1 68792U 26088A 26253.40164031 .00003209 00000-0 21554-3 0 9997
2 68792 97.5187 40.6167 0014481 169.9637 190.1883 15.07410716 21122
OrigamiSat 2
1 68795U 26088D 26253.40426381 .00009684 00000-0 59064-3 0 9999
2 68795 97.5174 41.0694 0015485 142.6991 217.5317 15.10444206 21151
ARICA 2
1 68796U 26088E 26253.38655485 .00002896 00000-0 18661-3 0 9992
2 68796 97.5175 40.9256 0016353 142.3804 217.8572 15.09005973 21147
WASEDA-SAT-ZERO-II
1 68797U 26088F 26253.36319234 .00005641 00000-0 35516-3 0 9999
2 68797 97.5169 40.9505 0016038 142.5692 217.6657 15.09467389 21140
MANGARO-II-Piscus
1 68798U 26088G 26253.42069931 .00003529 00000-0 22442-3 0 9990
2 68798 97.5187 41.0475 0019668 145.5779 214.6729 15.09303162 21156
CO-128
1 69912U 26156AV 26252.97539859 .00000934 00000-0 10021-3 0 9992
2 69912 97.7482 152.2754 0001208 318.8425 41.2702 14.90932174 9638
MARINA
1 69920U 26156BD 26253.46086156 .00001680 00000-0 17060-3 0 9992
2 69920 97.7449 152.8453 0006200 307.0994 52.9658 14.92148036 9716
IO-86
1 40931U 26199.45381863 .00000000 00000-0 77536-4 0 07
2 40931 6.0006 322.6653 0012733 338.8432 273.6875 14.79294310 03
LILIUM-4
1 71922C 26067AC 26089.50133053 -.00014632 00000+0 -74472-3 0 04
2 71922 97.4497 49.1617 0004341 5.9603 355.7042 15.16896692 16
